Wind_Speed
22 21 21 22 20 20 23 23 21 17 17 19 21 22 22 20 19 17 22 17 8 16 12 16 19 15 16 13 16 13 5 8 14 12 11 8 5 5 3 14 9 4 7 20 32
17 17 19 20 21 23 22 20 24 24 20 18 20 22 21 21 22 25 23 20 20 15 19 21 21 18 20 20 13 9 6 12 7 6 4 5 5 10 2 12 7 11 18 35 32
25 23 21 19 19 19 21 23 22 21 24 21 18 19 19 18 19 6 5 8 24 23 24 19 19 20 17 18 19 11 9 14 6 3 7 5 6 12 6 7 14 19 31 32 32
21 22 20 19 23 23 23 23 22 24 23 23 19 17 17 14 7 3 5 7 13 18 23 26 24 24 12 13 22 8 20 22 18 2 2 3 3 5 13 4 17 26 34 30 32
21 21 22 22 22 24 24 26 28 25 23 22 21 17 18 16 24 16 22 16 10 20 23 24 23 22 14 15 15 21 14 17 24 4 4 7 9 7 12 10 5 27 33 30 30
23 23 24 24 25 24 24 25 24 23 26 22 20 19 20 23 19 14 15 13 16 24 23 24 13 24 16 21 18 6 22 22 14 10 8 8 8 14 12 11 9 26 30 28 30
24 23 25 27 27 28 26 26 27 25 24 25 21 19 26 30 10 12 11 16 18 23 23 24 22 17 26 11 21 21 8 9 14 13 8 13 11 14 18 19 16 22 26 27 29
24 25 26 27 28 28 28 29 29 28 25 24 23 23 30 23 29 29 13 14 20 23 22 20 19 11 14 10 8 14 8 12 12 17 10 11 5 17 24 20 18 20 24 27 30
25 27 28 29 29 30 30 30 32 32 28 23 21 22 25 12 34 28 27 27 17 20 20 13 12 6 9 5 5 10 9 17 13 20 12 12 3 15 25 24 21 24 25 29 29
27 29 29 29 29 30 30 31 34 29 23 19 23 16 24 19 23 26 30 29 25 17 13 11 6 5 6 9 10 9 14 12 18 11 20 15 12 10 10 20 24 24 27 30 29
27 29 31 30 29 28 29 27 14 11 10 13 10 18 18 14 14 24 25 27 29 20 10 19 10 15 17 14 13 13 13 16 15 17 15 19 12 16 14 12 11 26 24 30 33
29 29 30 29 29 27 25 13 16 16 11 27 28 32 33 33 14 20 21 26 26 19 16 10 18 14 14 16 16 19 13 8 10 7 6 7 13 15 15 14 20 19 25 26 34
27 28 28 28 28 21 13 16 14 17 6 28 33 28 31 27 30 22 28 32 21 20 23 16 10 16 18 15 17 17 13 10 6 7 2 3 9 15 14 23 28 30 29 30 37
26 27 26 26 14 9 16 11 14 14 4 9 5 8 27 26 19 28 15 32 13 21 19 17 17 22 16 20 16 16 12 14 8 3 3 9 5 9 23 22 18 27 30 31 31
26 27 25 20 20 12 14 13 11 6 4 4 4 11 9 24 10 19 32 14 20 12 16 12 17 17 21 18 18 12 11 13 8 5 5 8 3 6 6 14 20 17 32 34 33
26 26 25 18 14 12 10 11 5 2 6 5 4 5 8 21 18 9 20 23 14 11 19 12 5 15 12 11 12 8 4 6 0 1 8 13 10 6 7 10 18 19 28 35 36
25 25 19 11 11 13 11 6 2 3 10 7 8 11 13 12 18 17 17 14 5 8 9 15 4 5 13 9 6 5 8 3 4 4 5 4 11 13 3 5 3 17 29 35 36
23 17 13 12 9 11 4 2 4 7 11 14 15 15 9 8 9 14 15 15 14 11 7 9 5 11 10 15 7 17 10 4 6 4 5 3 6 6 19 10 7 5 24 35 37
20 11 11 8 9 5 2 2 3 8 9 11 17 11 7 3 4 12 17 7 14 16 6 10 8 13 10 13 7 10 8 2 3 5 1 5 5 5 5 3 3 9 7 28 35
15 10 4 10 8 1 0 5 4 10 11 5 5 7 8 7 3 4 7 5 6 16 12 2 7 16 12 4 6 8 8 6 2 1 3 6 4 5 8 7 7 8 8 13 31
7 6 5 8 5 1 2 4 10 13 12 2 5 6 5 5 6 3 3 7 17 17 17 9 3 1 3 6 11 3 7 5 4 3 1 2 3 4 6 3 10 7 14 16 25
6 3 11 6 2 0 3 7 16 15 14 8 6 8 9 8 2 3 3 4 14 7 19 11 5 3 8 5 1 8 7 12 4 4 3 3 5 4 5 4 3 11 15 14 25
5 4 5 6 2 2 8 12 13 10 9 4 6 2 8 7 4 3 4 5 8 5 10 9 2 3 7 1 3 1 6 3 2 3 5 4 4 3 3 2 10 15 15 12 25
4 3 3 3 2 3 7 7 7 11 12 7 9 9 5 5 6 4 4 2 7 6 9 10 3 5 5 6 7 4 4 7 5 8 3 6 9 5 5 5 7 15 15 15 21
5 2 3 3 1 8 8 3 10 6 7 7 4 7 9 2 4 3 2 2 1 7 4 3 4 3 5 0 5 4 5 6 8 9 12 12 14 3 8 9 8 17 16 18 20
6 4 4 8 8 6 4 3 10 12 5 5 3 8 9 4 3 4 2 1 3 5 2 5 2 5 4 8 6 6 7 12 16 8 11 9 18 7 3 17 15 18 21 19 22
6 5 4 7 3 3 2 6 8 11 3 10 12 7 6 8 7 5 8 9 2 3 3 4 2 2 4 7 8 8 16 13 14 17 16 15 14 15 2 7 12 21 22 23 25
Wind_Direction
342 340 337 339 330 304 289 285 290 297 304 305 311 316 320 317 304 297 271 268 264 245 202 194 182 186 192 204 207 217 232 236 231 247 258 87 113 144 32 121 118 94 97 165 160
326 326 325 327 328 326 324 317 292 287 288 302 303 309 315 320 307 290 294 255 247 219 211 195 199 189 199 205 206 208 219 228 237 273 227 143 173 152 136 145 118 103 122 149 154
323 315 307 311 309 311 312 314 311 309 284 279 299 297 306 319 312 259 255 274 225 236 213 201 204 194 209 204 207 222 228 234 247 328 355 338 202 165 182 193 174 147 146 158 158
327 323 325 315 306 301 301 300 305 308 308 286 275 293 294 304 262 240 295 334 241 226 191 208 206 202 213 213 209 255 213 252 276 124 83 286 254 236 183 232 193 176 169 165 167
326 322 322 317 311 307 307 302 297 294 298 298 281 277 286 254 246 262 292 286 231 193 204 210 217 209 215 210 220 216 244 235 239 177 216 263 274 236 211 225 157 162 170 173 173
326 324 320 317 314 312 312 308 300 300 285 291 294 270 273 255 262 259 261 264 212 190 204 205 216 213 219 244 209 207 220 244 253 191 197 234 259 247 244 209 168 161 171 176 178
322 319 320 318 316 314 311 307 301 299 293 279 288 287 266 249 241 265 254 233 212 201 208 204 211 221 230 259 254 226 226 240 238 228 234 180 241 248 224 209 173 170 175 180 184
324 321 321 320 318 314 310 305 300 299 299 291 272 273 263 253 253 241 244 231 220 214 217 209 230 245 244 262 286 232 207 228 212 221 206 153 239 215 224 228 176 189 186 187 188
323 320 318 314 316 315 311 305 299 298 290 286 268 251 268 253 236 224 228 229 228 220 217 221 231 192 242 238 255 224 217 226 240 206 204 187 218 235 214 208 190 196 195 190 189
321 318 317 315 313 313 314 308 305 299 283 266 244 254 256 250 231 229 215 221 220 212 203 201 189 168 228 201 205 215 212 245 219 212 200 207 219 285 215 198 195 203 198 187 189
324 320 318 318 315 312 312 320 326 322 237 254 291 229 270 292 245 216 211 212 208 200 194 186 181 201 204 221 227 244 223 216 253 207 187 218 215 225 246 222 241 196 207 191 188
325 324 321 319 314 312 306 284 288 309 293 273 264 267 267 275 272 228 194 194 204 203 193 172 211 196 217 206 226 247 269 281 230 122 148 220 240 241 218 211 212 211 210 208 184
328 326 324 322 320 322 311 294 295 311 286 283 258 246 240 241 249 248 212 200 204 204 197 201 192 197 201 214 216 237 242 255 282 119 202 307 271 252 232 221 203 206 212 220 183
327 328 328 326 336 327 312 321 315 330 276 271 219 261 222 221 243 231 247 191 200 204 207 216 220 190 199 210 216 229 218 244 250 129 234 155 271 240 225 216 212 196 201 211 188
325 327 330 331 313 315 311 308 309 313 289 29 347 284 212 202 179 214 235 248 201 201 203 194 205 211 204 207 210 231 229 215 228 214 303 229 265 261 267 207 207 204 193 199 205
323 328 327 329 318 320 320 306 307 253 251 311 324 248 239 203 225 224 170 220 221 206 202 214 288 208 207 210 210 186 114 282 151 205 259 240 240 255 243 186 202 201 200 194 200
322 328 328 337 307 302 316 331 281 239 323 347 345 341 314 228 216 230 211 195 144 161 199 191 229 217 176 181 164 195 158 126 170 190 224 177 215 248 239 57 184 188 196 195 194
321 334 344 318 310 296 333 7 251 300 316 347 346 313 276 318 226 224 239 213 206 225 165 189 183 231 196 180 179 179 173 164 182 189 199 174 233 226 242 253 168 95 197 188 189
327 341 329 336 334 317 77 276 281 346 340 330 330 283 259 342 246 223 221 221 206 205 198 180 202 179 172 158 166 186 207 154 353 267 67 194 243 326 212 117 131 146 150 179 181
331 335 337 316 332 95 318 280 298 330 334 324 307 331 344 336 185 229 204 214 223 231 222 208 181 172 171 142 229 194 172 211 33 230 228 205 208 222 204 189 170 155 179 177 177
1 332 324 331 351 40 277 283 317 332 325 315 318 313 344 1 307 205 214 252 198 197 229 177 334 159 128 204 173 135 194 233 146 180 229 335 239 324 27 56 169 169 179 201 176
342 328 316 358 301 151 272 298 308 319 315 276 264 287 287 318 284 160 255 350 8 317 208 203 137 138 205 233 237 206 194 197 143 248 219 174 280 32 40 15 65 154 183 189 174
347 307 345 1 346 317 307 319 309 327 306 295 299 301 322 324 320 225 312 347 339 335 205 156 198 135 155 38 51 220 228 170 206 40 226 156 253 69 55 39 85 106 135 155 159
355 342 314 335 290 291 329 315 327 319 301 288 277 306 297 323 331 292 218 297 343 23 305 132 139 167 176 182 138 157 217 236 172 217 233 239 261 173 139 111 102 117 138 155 156
22 6 332 313 342 324 312 267 303 337 316 313 300 273 298 259 302 265 173 32 249 93 348 101 144 183 281 149 113 146 191 202 204 203 209 246 262 303 157 157 146 141 144 157 161
10 346 325 291 307 304 313 337 321 338 302 289 211 311 331 298 304 312 28 173 209 62 53 353 143 189 231 247 245 200 217 210 225 214 244 237 247 246 94 136 138 153 156 163 169
5 323 289 274 279 296 13 311 324 328 316 339 332 311 302 345 312 318 319 352 31 124 113 116 99 70 246 224 223 246 223 224 219 218 210 223 239 276 139 144 166 160 168 173 173
Height
1481 1479 1477 1474 1471 1470 1469 1467 1466 1463 1462 1460 1458 1456 1454 1451 1449 1448 1444 1443 1444 1446 1449 1452 1454 1456 1460 1462 1464 1464 1464 1461 1455 1454 1447 1439 1442 1448 1453 1453 1457 1462 1463 1465 1476
1480 1477 1475 1472 1470 1467 1465 1463 1462 1460 1459 1458 1456 1453 1451 1449 1445 1440 1439 1439 1442 1444 1447 1449 1451 1453 1457 1459 1460 1458 1458 1452 1444 1445 1440 1441 1444 1449 1454 1456 1459 1463 1467 1469 1475
1478 1474 1471 1469 1465 1463 1461 1459 1457 1455 1455 1453 1453 1451 1450 1447 1443 1434 1433 1433 1437 1439 1443 1447 1451 1453 1455 1454 1454 1452 1450 1447 1444 1444 1444 1445 1446 1449 1453 1457 1457 1462 1466 1469 1474
1475 1472 1468 1464 1461 1458 1457 1455 1454 1451 1450 1448 1448 1448 1446 1446 1443 1431 1431 1432 1433 1435 1440 1443 1447 1450 1450 1448 1448 1449 1447 1446 1445 1445 1447 1447 1446 1448 1451 1454 1454 1456 1461 1467 1472
1468 1467 1465 1462 1458 1456 1452 1450 1448 1448 1445 1443 1443 1443 1442 1439 1430 1429 1429 1430 1430 1433 1436 1439 1441 1444 1443 1443 1444 1444 1445 1443 1443 1446 1448 1448 1448 1448 1450 1453 1454 1454 1458 1464 1471
1468 1464 1461 1459 1455 1452 1449 1446 1442 1441 1441 1439 1438 1439 1438 1427 1427 1428 1427 1427 1427 1430 1432 1435 1436 1440 1440 1438 1436 1435 1441 1441 1441 1443 1446 1448 1448 1449 1449 1451 1453 1455 1458 1463 1468
1464 1461 1457 1454 1451 1448 1444 1440 1438 1435 1434 1434 1434 1432 1428 1419 1422 1424 1424 1425 1424 1426 1429 1431 1435 1436 1437 1435 1433 1431 1437 1437 1439 1442 1443 1446 1450 1446 1447 1448 1450 1454 1458 1461 1466
1461 1457 1453 1450 1446 1442 1439 1434 1431 1429 1428 1428 1429 1426 1410 1412 1415 1415 1421 1421 1422 1424 1427 1429 1430 1431 1433 1432 1430 1429 1433 1441 1434 1438 1440 1445 1446 1441 1442 1445 1448 1452 1455 1459 1463
1455 1453 1449 1445 1442 1438 1433 1429 1424 1421 1421 1421 1421 1421 1406 1402 1401 1408 1413 1417 1419 1420 1422 1426 1429 1428 1431 1435 1438 1428 1436 1436 1433 1428 1434 1439 1441 1435 1436 1439 1444 1448 1452 1456 1460
1452 1448 1444 1441 1436 1433 1428 1423 1416 1412 1411 1412 1412 1418 1402 1395 1397 1398 1405 1411 1415 1417 1421 1423 1421 1425 1429 1432 1433 1431 1432 1429 1428 1423 1427 1433 1438 1432 1432 1434 1438 1442 1446 1451 1456
1449 1444 1440 1436 1432 1427 1424 1419 1415 1411 1409 1406 1402 1398 1386 1395 1394 1393 1398 1405 1410 1415 1413 1415 1420 1419 1421 1425 1426 1421 1420 1424 1418 1413 1422 1429 1432 1433 1433 1432 1433 1436 1440 1445 1449
1444 1439 1435 1431 1427 1423 1421 1419 1417 1415 1406 1397 1396 1394 1394 1391 1394 1391 1393 1396 1401 1401 1408 1414 1410 1412 1418 1420 1423 1420 1423 1422 1412 1415 1423 1428 1429 1425 1424 1427 1429 1431 1434 1439 1444
1440 1436 1431 1426 1421 1418 1417 1416 1413 1411 1409 1383 1382 1383 1383 1387 1385 1388 1387 1390 1392 1398 1400 1401 1400 1409 1413 1416 1420 1420 1424 1424 1420 1421 1425 1430 1431 1421 1415 1418 1421 1424 1429 1433 1435
1437 1433 1428 1423 1420 1418 1417 1414 1411 1410 1406 1379 1372 1369 1372 1377 1377 1381 1381 1385 1389 1390 1395 1400 1400 1402 1405 1411 1416 1420 1417 1418 1418 1427 1441 1427 1443 1406 1404 1406 1408 1414 1420 1425 1430
1435 1430 1425 1421 1418 1417 1416 1413 1411 1410 1407 1369 1371 1369 1364 1369 1368 1373 1379 1382 1381 1385 1393 1390 1393 1397 1402 1401 1409 1414 1413 1417 1419 1427 1430 1428 1440 1409 1392 1400 1402 1405 1411 1416 1423
1431 1427 1422 1419 1418 1416 1413 1412 1411 1412 1403 1370 1370 1370 1365 1365 1368 1365 1375 1383 1381 1384 1384 1389 1391 1394 1395 1399 1402 1410 1417 1419 1420 1430 1439 1425 1427 1411 1397 1389 1391 1396 1402 1410 1416
1428 1425 1420 1417 1416 1414 1413 1412 1412 1407 1375 1376 1374 1372 1364 1364 1366 1367 1366 1375 1375 1387 1391 1390 1397 1386 1391 1400 1403 1410 1418 1431 1438 1440 1440 1408 1419 1405 1385 1383 1384 1387 1394 1403 1410
1425 1422 1419 1417 1415 1413 1414 1415 1415 1387 1380 1380 1379 1373 1372 1365 1366 1368 1370 1372 1377 1378 1384 1392 1403 1395 1387 1393 1398 1409 1414 1428 1427 1441 1424 1409 1415 1400 1382 1382 1383 1384 1387 1395 1404
1422 1421 1419 1417 1415 1413 1416 1414 1403 1391 1392 1389 1379 1368 1365 1367 1372 1366 1368 1378 1372 1375 1381 1385 1384 1385 1385 1388 1395 1406 1413 1405 1415 1402 1416 1413 1395 1384 1380 1382 1382 1384 1387 1391 1398
1421 1419 1418 1416 1414 1415 1417 1409 1401 1395 1392 1391 1390 1376 1376 1374 1373 1367 1366 1370 1377 1372 1375 1390 1388 1383 1388 1391 1394 1396 1399 1414 1427 1434 1410 1401 1389 1389 1379 1382 1383 1385 1387 1390 1396
1421 1419 1418 1416 1416 1416 1416 1408 1401 1396 1394 1394 1390 1384 1380 1382 1375 1372 1365 1363 1363 1370 1373 1381 1390 1400 1392 1392 1392 1404 1401 1405 1411 1419 1421 1403 1393 1383 1382 1379 1382 1386 1389 1392 1395
1422 1421 1417 1416 1418 1416 1413 1407 1401 1395 1393 1392 1387 1383 1379 1375 1377 1374 1369 1365 1368 1370 1370 1376 1388 1403 1399 1387 1388 1391 1396 1401 1419 1423 1425 1424 1405 1384 1382 1381 1380 1384 1389 1392 1395
1423 1422 1418 1417 1417 1414 1408 1403 1398 1394 1392 1390 1386 1382 1381 1378 1383 1372 1369 1370 1369 1369 1366 1371 1390 1398 1398 1399 1397 1399 1395 1401 1409 1410 1412 1419 1399 1386 1386 1384 1382 1386 1390 1394 1397
1425 1423 1420 1418 1418 1418 1412 1404 1401 1394 1390 1388 1386 1383 1381 1380 1376 1375 1374 1371 1370 1369 1369 1370 1386 1389 1401 1399 1398 1410 1404 1399 1407 1413 1410 1403 1389 1390 1390 1389 1389 1391 1393 1397 1401
1426 1425 1424 1420 1417 1417 1414 1410 1404 1399 1391 1389 1385 1383 1382 1390 1384 1374 1370 1373 1372 1372 1373 1377 1387 1385 1382 1380 1386 1394 1405 1406 1407 1401 1406 1397 1389 1382 1386 1389 1391 1393 1397 1399 1404
1429 1428 1425 1421 1418 1415 1411 1407 1403 1400 1398 1389 1390 1384 1383 1385 1380 1381 1377 1374 1374 1379 1379 1382 1386 1383 1387 1382 1383 1390 1393 1398 1395 1399 1398 1394 1389 1380 1385 1385 1390 1394 1397 1400 1404
1429 1428 1426 1419 1416 1414 1411 1408 1404 1400 1395 1392 1390 1386 1386 1384 1381 1378 1376 1374 1373 1377 1381 1385 1388 1395 1399 1379 1381 1388 1381 1386 1388 1389 1391 1396 1389 1380 1388 1386 1388 1392 1397 1400 1403